Location: Tamazert
(32.6352°N, 5.2072°W)
Time: 23:48:21
(UTC+00:00)

Vanguard 1 Rocket - Pass Details

Date: 12 October 2022
Orbit: 650 x 4225 km, 34.3° (Epoch: 05 December)

Event Time Altitude Azimuth Distance (km) Brightness Sun altitude
Rises 22:26:58 0° 286° (WNW) 7,800 12.6 -55.9°
Reaches altitude 10° 22:33:00 10° 285° (WNW) 6,317 12.0 -56.8°
Enters shadow 22:43:59 39° 276° (W) 3,401 10.2 -58.4°
